Time,TemperatureF,DewpointF,PressureIn,WindDirection,WindDirectionDegrees,WindSpeedMPH,WindSpeedGustMPH,Humidity,HourlyPrecipIn,Conditions,Clouds,dailyrainin,SoftwareType,DateUTC
2013-03-01 00:01:00,36.6,31.0,30.08,NW,306,3.0,10.0,80,0.00,,---,0.00,VWS V14.01,2013-03-01 06:01:00,
2013-03-01 00:06:00,36.6,31.0,30.08,WNW,299,1.0,3.0,80,0.00,,---,0.00,VWS V14.01,2013-03-01 06:06:00,
2013-03-01 00:11:00,36.5,30.9,30.08,NW,319,1.0,6.0,80,0.00,,---,0.00,VWS V14.01,2013-03-01 06:11:00,
2013-03-01 00:16:00,36.4,31.1,30.08,NNW,344,3.0,6.0,81,0.00,,---,0.00,VWS V14.01,2013-03-01 06:16:00,
2013-03-01 00:21:00,36.3,30.7,30.08,NNW,338,4.0,7.0,80,0.00,,---,0.00,VWS V14.01,2013-03-01 06:21:00,
2013-03-01 00:26:00,36.2,30.6,30.08,NNW,331,5.0,8.0,80,0.00,,---,0.00,VWS V14.01,2013-03-01 06:26:00,
2013-03-01 00:31:00,36.1,30.5,30.08,WNW,302,3.0,8.0,80,0.00,,---,0.00,VWS V14.01,2013-03-01 06:31:00,
2013-03-01 00:36:00,36.1,30.5,30.09,NW,310,5.0,5.0,80,0.00,,---,0.00,VWS V14.01,2013-03-01 06:36:00,
2013-03-01 00:41:00,36.0,30.4,30.09,NNW,338,5.0,9.0,80,0.00,,---,0.00,VWS V14.01,2013-03-01 06:41:00,
2013-03-01 00:46:00,36.0,30.4,30.09,NW,317,6.0,9.0,80,0.00,,---,0.00,VWS V14.01,2013-03-01 06:46:00,
2013-03-01 00:51:00,35.9,30.0,30.09,NW,316,2.0,9.0,79,0.00,,---,0.00,VWS V14.01,2013-03-01 06:51:00,
2013-03-01 00:56:00,36.0,30.1,30.09,NNW,346,4.0,9.0,79,0.00,,---,0.00,VWS V14.01,2013-03-01 06:56:00,
2013-03-01 01:01:00,36.0,30.1,30.09,NW,316,5.0,9.0,79,0.00,,---,0.00,VWS V14.01,2013-03-01 07:01:00,
2013-03-01 01:06:00,36.0,29.8,30.09,NW,308,3.0,7.0,78,0.00,,---,0.00,VWS V14.01,2013-03-01 07:06:00,
2013-03-01 01:11:00,36.0,29.8,30.09,NNW,331,5.0,11.0,78,0.00,,---,0.00,VWS V14.01,2013-03-01 07:11:00,
2013-03-01 01:16:00,36.1,29.6,30.09,NNW,333,7.0,11.0,77,0.00,,---,0.00,VWS V14.01,2013-03-01 07:16:00,
2013-03-01 01:21:00,36.1,29.6,30.09,North,355,6.0,11.0,77,0.00,,---,0.00,VWS V14.01,2013-03-01 07:21:00,
2013-03-01 01:26:00,36.1,29.6,30.09,NW,305,8.0,11.0,77,0.00,,---,0.00,VWS V14.01,2013-03-01 07:26:00,
2013-03-01 01:31:00,36.1,29.6,30.10,NNW,329,5.0,11.0,77,0.00,,---,0.00,VWS V14.01,2013-03-01 07:31:00,
2013-03-01 01:36:00,36.0,29.5,30.10,West,281,9.0,11.0,77,0.00,,---,0.00,VWS V14.01,2013-03-01 07:36:00,
2013-03-01 01:41:00,36.0,29.5,30.09,NNW,338,3.0,12.0,77,0.00,,---,0.00,VWS V14.01,2013-03-01 07:41:00,
2013-03-01 01:46:00,36.0,29.5,30.09,NE,38,7.0,12.0,77,0.00,,---,0.00,VWS V14.01,2013-03-01 07:46:00,
2013-03-01 01:51:00,35.9,29.4,30.09,North,351,8.0,12.0,77,0.00,,---,0.00,VWS V14.01,2013-03-01 07:51:00,
2013-03-01 01:56:00,35.9,29.4,30.09,NNW,338,3.0,12.0,77,0.00,,---,0.00,VWS V14.01,2013-03-01 07:56:00,
2013-03-01 02:01:00,35.9,29.4,30.09,NNW,342,4.0,12.0,77,0.00,,---,0.00,VWS V14.01,2013-03-01 08:01:00,
2013-03-01 02:06:00,35.9,29.4,30.09,NNW,342,2.0,8.0,77,0.00,,---,0.00,VWS V14.01,2013-03-01 08:06:00,
2013-03-01 02:11:00,35.8,29.3,30.09,North,10,5.0,8.0,77,0.00,,---,0.00,VWS V14.01,2013-03-01 08:11:00,
2013-03-01 02:16:00,35.8,29.3,30.09,NW,311,3.0,8.0,77,0.00,,---,0.00,VWS V14.01,2013-03-01 08:16:00,
2013-03-01 02:21:00,35.8,29.3,30.08,NW,318,9.0,9.0,77,0.00,,---,0.00,VWS V14.01,2013-03-01 08:21:00,
2013-03-01 02:26:00,35.8,29.3,30.08,NNW,341,6.0,12.0,77,0.00,,---,0.00,VWS V14.01,2013-03-01 08:26:00,
2013-03-01 02:31:00,35.7,29.2,30.09,NNW,348,3.0,12.0,77,0.00,,---,0.00,VWS V14.01,2013-03-01 08:31:00,
2013-03-01 02:36:00,35.7,29.5,30.09,NNW,340,5.0,8.0,78,0.00,,---,0.00,VWS V14.01,2013-03-01 08:36:00,
2013-03-01 02:41:00,35.6,29.4,30.08,NNW,344,7.0,10.0,78,0.00,,---,0.00,VWS V14.01,2013-03-01 08:41:00,
2013-03-01 02:46:00,35.6,29.4,30.09,NNW,340,5.0,10.0,78,0.00,,---,0.00,VWS V14.01,2013-03-01 08:46:00,
2013-03-01 02:51:00,35.6,29.4,30.08,WNW,296,5.0,10.0,78,0.00,,---,0.00,VWS V14.01,2013-03-01 08:51:00,
2013-03-01 02:56:00,35.5,29.3,30.08,NNW,329,7.0,10.0,78,0.00,,---,0.00,VWS V14.01,2013-03-01 08:56:00,
2013-03-01 03:01:00,35.5,29.6,30.08,North,5,6.0,10.0,79,0.00,,---,0.00,VWS V14.01,2013-03-01 09:01:00,
2013-03-01 03:06:00,35.5,29.6,30.08,NW,317,4.0,5.0,79,0.00,,---,0.00,VWS V14.01,2013-03-01 09:06:00,
2013-03-01 03:11:00,35.4,29.5,30.08,NW,315,5.0,13.0,79,0.00,,---,0.00,VWS V14.01,2013-03-01 09:11:00,
2013-03-01 03:16:00,35.4,29.5,30.08,North,355,6.0,13.0,79,0.00,,---,0.00,VWS V14.01,2013-03-01 09:16:00,
2013-03-01 03:21:00,35.4,29.5,30.08,NNW,339,5.0,13.0,79,0.00,,---,0.00,VWS V14.01,2013-03-01 09:21:00,
2013-03-01 03:26:00,35.3,29.8,30.08,WNW,292,3.0,13.0,80,0.00,,---,0.00,VWS V14.01,2013-03-01 09:26:00,
2013-03-01 03:31:00,35.3,29.8,30.08,NNW,336,7.0,13.0,80,0.00,,---,0.00,VWS V14.01,2013-03-01 09:31:00,
2013-03-01 03:36:00,35.3,29.8,30.08,NNE,15,7.0,7.0,80,0.00,,---,0.00,VWS V14.01,2013-03-01 09:36:00,
2013-03-01 03:41:00,35.3,30.1,30.08,NW,304,7.0,10.0,81,0.00,,---,0.00,VWS V14.01,2013-03-01 09:41:00,
2013-03-01 03:46:00,35.3,29.8,30.07,NNW,337,6.0,10.0,80,0.00,,---,0.00,VWS V14.01,2013-03-01 09:46:00,
2013-03-01 03:51:00,35.3,29.8,30.07,North,360,8.0,10.0,80,0.00,,---,0.00,VWS V14.01,2013-03-01 09:51:00,
2013-03-01 03:56:00,35.3,30.1,30.07,NW,319,0.0,10.0,81,0.00,,---,0.00,VWS V14.01,2013-03-01 09:56:00,
2013-03-01 04:01:00,35.2,30.0,30.08,NNW,331,4.0,10.0,81,0.00,,---,0.00,VWS V14.01,2013-03-01 10:01:00,
2013-03-01 04:06:00,35.3,30.1,30.08,WNW,303,4.0,5.0,81,0.00,,---,0.00,VWS V14.01,2013-03-01 10:06:00,
2013-03-01 04:11:00,35.2,30.0,30.08,NW,308,2.0,7.0,81,0.00,,---,0.00,VWS V14.01,2013-03-01 10:11:00,
2013-03-01 04:16:00,35.2,30.0,30.08,NNW,341,4.0,7.0,81,0.00,,---,0.00,VWS V14.01,2013-03-01 10:16:00,
2013-03-01 04:21:00,35.2,30.0,30.08,North,360,2.0,9.0,81,0.00,,---,0.00,VWS V14.01,2013-03-01 10:21:00,
2013-03-01 04:26:00,35.3,30.1,30.08,WNW,290,3.0,9.0,81,0.00,,---,0.00,VWS V14.01,2013-03-01 10:26:00,
2013-03-01 04:31:00,35.3,30.1,30.08,North,355,1.0,9.0,81,0.00,,---,0.00,VWS V14.01,2013-03-01 10:31:00,
2013-03-01 04:36:00,35.2,30.0,30.08,North,355,2.0,3.0,81,0.00,,---,0.00,VWS V14.01,2013-03-01 10:36:00,
2013-03-01 04:41:00,35.3,30.1,30.08,NNW,332,5.0,8.0,81,0.00,,---,0.00,VWS V14.01,2013-03-01 10:41:00,
2013-03-01 04:46:00,35.3,30.1,30.08,North,355,3.0,8.0,81,0.00,,---,0.00,VWS V14.01,2013-03-01 10:46:00,
2013-03-01 04:51:00,35.3,30.1,30.08,NNW,336,4.0,8.0,81,0.00,,---,0.00,VWS V14.01,2013-03-01 10:51:00,
2013-03-01 04:56:00,35.3,30.1,30.08,WNW,301,3.0,8.0,81,0.00,,---,0.00,VWS V14.01,2013-03-01 10:56:00,
2013-03-01 05:01:00,35.3,30.1,30.08,NW,311,1.0,8.0,81,0.00,,---,0.00,VWS V14.01,2013-03-01 11:01:00,
2013-03-01 05:06:00,35.3,30.1,30.08,NNW,337,1.0,5.0,81,0.00,,---,0.00,VWS V14.01,2013-03-01 11:06:00,
2013-03-01 05:11:00,35.3,30.1,30.08,WNW,303,7.0,7.0,81,0.00,,---,0.00,VWS V14.01,2013-03-01 11:11:00,
2013-03-01 05:16:00,35.3,30.1,30.08,NW,311,5.0,9.0,81,0.00,,---,0.00,VWS V14.01,2013-03-01 11:16:00,
2013-03-01 05:21:00,35.3,30.1,30.08,NW,323,4.0,9.0,81,0.00,,---,0.00,VWS V14.01,2013-03-01 11:21:00,
2013-03-01 05:26:00,35.3,30.1,30.08,NE,44,1.0,9.0,81,0.00,,---,0.00,VWS V14.01,2013-03-01 11:26:00,
2013-03-01 05:31:00,35.3,30.4,30.08,NW,326,2.0,9.0,82,0.00,,---,0.00,VWS V14.01,2013-03-01 11:31:00,
2013-03-01 05:36:00,35.3,30.4,30.08,NW,325,4.0,6.0,82,0.00,,---,0.00,VWS V14.01,2013-03-01 11:36:00,
2013-03-01 05:41:00,35.3,30.4,30.08,North,360,3.0,6.0,82,0.00,,---,0.00,VWS V14.01,2013-03-01 11:41:00,
2013-03-01 05:46:00,35.2,30.3,30.08,NW,308,4.0,10.0,82,0.00,,---,0.00,VWS V14.01,2013-03-01 11:46:00,
2013-03-01 05:51:00,35.2,30.3,30.08,NW,309,3.0,10.0,82,0.00,,---,0.00,VWS V14.01,2013-03-01 11:51:00,
2013-03-01 05:56:00,35.2,30.3,30.09,NW,312,5.0,10.0,82,0.00,,---,0.00,VWS V14.01,2013-03-01 11:56:00,
2013-03-01 06:01:00,35.2,30.3,30.09,NW,308,3.0,10.0,82,0.00,,---,0.00,VWS V14.01,2013-03-01 12:01:00,
2013-03-01 06:06:00,35.2,30.3,30.09,NW,316,3.0,8.0,82,0.00,,---,0.00,VWS V14.01,2013-03-01 12:06:00,
2013-03-01 06:11:00,35.2,30.0,30.09,NNW,330,1.0,8.0,81,0.00,,---,0.00,VWS V14.01,2013-03-01 12:11:00,
2013-03-01 06:16:00,35.2,30.0,30.09,NNW,331,4.0,8.0,81,0.00,,---,0.00,VWS V14.01,2013-03-01 12:16:00,
2013-03-01 06:21:00,35.1,29.9,30.09,NW,317,2.0,8.0,81,0.00,,---,0.00,VWS V14.01,2013-03-01 12:21:00,
2013-03-01 06:26:00,35.1,29.9,30.09,NW,309,0.0,8.0,81,0.00,,---,0.00,VWS V14.01,2013-03-01 12:26:00,
2013-03-01 06:31:00,35.1,29.9,30.09,NNW,329,1.0,8.0,81,0.00,,---,0.00,VWS V14.01,2013-03-01 12:31:00,
2013-03-01 06:36:00,35.1,30.2,30.09,NW,318,2.0,2.0,82,0.00,,---,0.00,VWS V14.01,2013-03-01 12:36:00,
2013-03-01 06:41:00,35.1,30.2,30.09,NW,325,1.0,5.0,82,0.00,,---,0.00,VWS V14.01,2013-03-01 12:41:00,
2013-03-01 06:46:00,35.1,30.2,30.09,NNW,336,3.0,6.0,82,0.00,,---,0.00,VWS V14.01,2013-03-01 12:46:00,
2013-03-01 06:51:00,35.2,30.0,30.09,NNW,336,6.0,8.0,81,0.00,,---,0.00,VWS V14.01,2013-03-01 12:51:00,
2013-03-01 06:56:00,35.1,29.9,30.09,NW,314,5.0,8.0,81,0.00,,---,0.00,VWS V14.01,2013-03-01 12:56:00,
2013-03-01 07:01:00,35.2,30.3,30.09,NW,308,2.0,8.0,82,0.00,,---,0.00,VWS V14.01,2013-03-01 13:01:00,
2013-03-01 07:06:00,35.1,29.9,30.09,NNE,19,2.0,7.0,81,0.00,,---,0.00,VWS V14.01,2013-03-01 13:06:00,
2013-03-01 07:11:00,35.1,29.9,30.09,North,355,3.0,13.0,81,0.00,,---,0.00,VWS V14.01,2013-03-01 13:11:00,
2013-03-01 07:16:00,35.2,29.7,30.10,WNW,298,3.0,13.0,80,0.00,,---,0.00,VWS V14.01,2013-03-01 13:16:00,
2013-03-01 07:21:00,35.2,29.7,30.10,NW,316,5.0,13.0,80,0.00,,---,0.00,VWS V14.01,2013-03-01 13:21:00,
2013-03-01 07:26:00,35.2,29.7,30.10,NNW,329,2.0,13.0,80,0.00,,---,0.00,VWS V14.01,2013-03-01 13:26:00,
2013-03-01 07:31:00,35.2,29.7,30.10,NW,321,4.0,13.0,80,0.00,,---,0.00,VWS V14.01,2013-03-01 13:31:00,
2013-03-01 07:36:00,35.2,29.7,30.10,NW,324,4.0,8.0,80,0.00,,---,0.00,VWS V14.01,2013-03-01 13:36:00,
2013-03-01 07:41:00,35.3,29.8,30.11,NNW,331,0.0,8.0,80,0.00,,---,0.00,VWS V14.01,2013-03-01 13:41:00,
2013-03-01 07:46:00,35.3,29.8,30.11,NNW,342,1.0,9.0,80,0.00,,---,0.00,VWS V14.01,2013-03-01 13:46:00,
2013-03-01 07:51:00,35.3,29.8,30.11,NNW,333,3.0,9.0,80,0.00,,---,0.00,VWS V14.01,2013-03-01 13:51:00,
2013-03-01 07:56:00,35.3,29.8,30.11,NW,311,2.0,9.0,80,0.00,,---,0.00,VWS V14.01,2013-03-01 13:56:00,
2013-03-01 08:01:00,35.3,29.8,30.11,NW,306,2.0,9.0,80,0.00,,---,0.00,VWS V14.01,2013-03-01 14:01:00,
2013-03-01 08:06:00,35.4,29.9,30.11,NW,321,3.0,7.0,80,0.00,,---,0.00,VWS V14.01,2013-03-01 14:06:00,
2013-03-01 08:11:00,35.5,30.0,30.11,North,350,9.0,9.0,80,0.00,,---,0.00,VWS V14.01,2013-03-01 14:11:00,
2013-03-01 08:16:00,35.5,30.3,30.11,NNW,329,3.0,10.0,81,0.00,,---,0.00,VWS V14.01,2013-03-01 14:16:00,
2013-03-01 08:21:00,35.6,30.4,30.12,North,351,0.0,10.0,81,0.00,,---,0.00,VWS V14.01,2013-03-01 14:21:00,
2013-03-01 08:26:00,35.6,30.4,30.12,NW,324,6.0,10.0,81,0.00,,---,0.00,VWS V14.01,2013-03-01 14:26:00,
2013-03-01 08:31:00,35.6,30.0,30.12,West,279,5.0,12.0,80,0.00,,---,0.00,VWS V14.01,2013-03-01 14:31:00,
2013-03-01 08:36:00,35.7,30.1,30.12,NNW,336,8.0,8.0,80,0.00,,---,0.00,VWS V14.01,2013-03-01 14:36:00,
2013-03-01 08:41:00,35.7,30.1,30.12,NW,316,4.0,11.0,80,0.00,,---,0.00,VWS V14.01,2013-03-01 14:41:00,
2013-03-01 08:46:00,35.7,30.1,30.12,NW,306,5.0,11.0,80,0.00,,---,0.00,VWS V14.01,2013-03-01 14:46:00,
2013-03-01 08:51:00,35.8,29.9,30.12,NNW,348,3.0,12.0,79,0.00,,---,0.00,VWS V14.01,2013-03-01 14:51:00,
2013-03-01 08:56:00,35.8,30.2,30.12,NW,309,2.0,12.0,80,0.00,,---,0.00,VWS V14.01,2013-03-01 14:56:00,
2013-03-01 09:01:00,36.0,30.4,30.12,NNW,336,4.0,12.0,80,0.00,,---,0.00,VWS V14.01,2013-03-01 15:01:00,
2013-03-01 09:06:00,36.2,30.6,30.12,NW,321,3.0,7.0,80,0.00,,---,0.00,VWS V14.01,2013-03-01 15:06:00,
2013-03-01 09:11:00,36.4,30.5,30.12,North,5,3.0,7.0,79,0.00,,---,0.00,VWS V14.01,2013-03-01 15:11:00,
2013-03-01 09:16:00,36.5,30.6,30.12,NNW,340,5.0,7.0,79,0.00,,---,0.00,VWS V14.01,2013-03-01 15:16:00,
2013-03-01 09:21:00,36.6,30.7,30.12,NNW,328,6.0,8.0,79,0.00,,---,0.00,VWS V14.01,2013-03-01 15:21:00,
2013-03-01 09:26:00,36.8,30.9,30.12,WNW,296,3.0,9.0,79,0.00,,---,0.00,VWS V14.01,2013-03-01 15:26:00,
2013-03-01 09:31:00,36.8,30.6,30.12,NNW,333,7.0,9.0,78,0.00,,---,0.00,VWS V14.01,2013-03-01 15:31:00,
2013-03-01 09:36:00,36.8,30.3,30.12,NNW,331,4.0,9.0,77,0.00,,---,0.00,VWS V14.01,2013-03-01 15:36:00,
2013-03-01 09:41:00,36.8,30.6,30.12,North,355,5.0,11.0,78,0.00,,---,0.00,VWS V14.01,2013-03-01 15:41:00,
2013-03-01 09:46:00,36.7,30.8,30.12,North,355,5.0,11.0,79,0.00,,---,0.00,VWS V14.01,2013-03-01 15:46:00,
2013-03-01 09:51:00,36.8,30.6,30.12,NW,315,2.0,11.0,78,0.00,,---,0.00,VWS V14.01,2013-03-01 15:51:00,
2013-03-01 09:56:00,36.9,30.7,30.13,NW,313,4.0,11.0,78,0.00,,---,0.00,VWS V14.01,2013-03-01 15:56:00,
2013-03-01 10:01:00,37.0,30.8,30.13,NW,316,3.0,11.0,78,0.00,,---,0.00,VWS V14.01,2013-03-01 16:01:00,
2013-03-01 10:06:00,37.0,30.5,30.13,NNW,333,6.0,8.0,77,0.00,,---,0.00,VWS V14.01,2013-03-01 16:06:00,
2013-03-01 10:11:00,37.2,30.7,30.13,NW,322,6.0,8.0,77,0.00,,---,0.00,VWS V14.01,2013-03-01 16:11:00,
2013-03-01 10:16:00,37.4,30.9,30.13,NW,319,3.0,9.0,77,0.00,,---,0.00,VWS V14.01,2013-03-01 16:16:00,
2013-03-01 10:21:00,37.4,30.2,30.13,NNW,329,7.0,10.0,75,0.00,,---,0.00,VWS V14.01,2013-03-01 16:21:00,
2013-03-01 10:26:00,37.3,30.4,30.13,NW,319,5.0,10.0,76,0.00,,---,0.00,VWS V14.01,2013-03-01 16:26:00,
2013-03-01 10:31:00,37.5,30.3,30.14,NNW,344,6.0,10.0,75,0.00,,---,0.00,VWS V14.01,2013-03-01 16:31:00,
2013-03-01 10:36:00,37.7,30.2,30.13,NW,310,1.0,9.0,74,0.00,,---,0.00,VWS V14.01,2013-03-01 16:36:00,
2013-03-01 10:41:00,37.9,30.4,30.13,NNW,327,3.0,11.0,74,0.00,,---,0.00,VWS V14.01,2013-03-01 16:41:00,
2013-03-01 10:46:00,38.1,30.2,30.13,WNW,292,6.0,11.0,73,0.00,,---,0.00,VWS V14.01,2013-03-01 16:46:00,
2013-03-01 10:51:00,38.1,30.6,30.13,NNE,21,5.0,11.0,74,0.00,,---,0.00,VWS V14.01,2013-03-01 16:51:00,
2013-03-01 10:56:00,38.0,30.1,30.14,NW,316,6.0,11.0,73,0.00,,---,0.00,VWS V14.01,2013-03-01 16:56:00,
2013-03-01 11:01:00,37.7,29.8,30.13,NNW,340,4.0,11.0,73,0.00,,---,0.00,VWS V14.01,2013-03-01 17:01:00,
2013-03-01 11:06:00,37.5,30.3,30.13,NW,309,3.0,6.0,75,0.00,,---,0.00,VWS V14.01,2013-03-01 17:06:00,
2013-03-01 11:11:00,37.7,30.5,30.13,WSW,255,5.0,12.0,75,0.00,,---,0.00,VWS V14.01,2013-03-01 17:11:00,
2013-03-01 11:16:00,38.2,30.3,30.13,NNW,336,7.0,12.0,73,0.00,,---,0.00,VWS V14.01,2013-03-01 17:16:00,
2013-03-01 11:21:00,38.4,30.5,30.13,WNW,291,9.0,12.0,73,0.00,,---,0.00,VWS V14.01,2013-03-01 17:21:00,
2013-03-01 11:26:00,38.4,29.8,30.13,North,355,5.0,12.0,71,0.00,,---,0.00,VWS V14.01,2013-03-01 17:26:00,
2013-03-01 11:31:00,38.2,30.0,30.13,NW,308,3.0,12.0,72,0.00,,---,0.00,VWS V14.01,2013-03-01 17:31:00,
2013-03-01 11:36:00,38.2,30.3,30.13,NW,308,5.0,10.0,73,0.00,,---,0.00,VWS V14.01,2013-03-01 17:36:00,
2013-03-01 11:41:00,38.2,30.0,30.13,WNW,302,10.0,12.0,72,0.00,,---,0.00,VWS V14.01,2013-03-01 17:41:00,
2013-03-01 11:46:00,38.3,29.7,30.13,NW,310,5.0,14.0,71,0.00,,---,0.00,VWS V14.01,2013-03-01 17:46:00,
2013-03-01 11:51:00,38.5,30.3,30.12,NW,312,9.0,14.0,72,0.00,,---,0.00,VWS V14.01,2013-03-01 17:51:00,
2013-03-01 11:56:00,38.8,30.6,30.12,NNW,344,10.0,14.0,72,0.00,,---,0.00,VWS V14.01,2013-03-01 17:56:00,
2013-03-01 12:01:00,39.2,30.6,30.12,NW,326,5.0,14.0,71,0.00,,---,0.00,VWS V14.01,2013-03-01 18:01:00,
2013-03-01 12:06:00,39.6,30.3,30.12,NW,314,10.0,11.0,69,0.00,,---,0.00,VWS V14.01,2013-03-01 18:06:00,
2013-03-01 12:11:00,39.6,30.6,30.12,North,360,6.0,11.0,70,0.00,,---,0.00,VWS V14.01,2013-03-01 18:11:00,
2013-03-01 12:16:00,39.5,30.5,30.11,WNW,298,8.0,11.0,70,0.00,,---,0.00,VWS V14.01,2013-03-01 18:16:00,
2013-03-01 12:21:00,39.3,30.0,30.11,NW,305,1.0,11.0,69,0.00,,---,0.00,VWS V14.01,2013-03-01 18:21:00,
2013-03-01 12:26:00,39.0,29.7,30.11,NW,323,8.0,12.0,69,0.00,,---,0.00,VWS V14.01,2013-03-01 18:26:00,
2013-03-01 12:30:00,38.5,29.9,30.11,NW,316,3.0,12.0,71,0.00,,---,0.00,VWS V14.01,2013-03-01 18:30:00,
2013-03-01 12:35:00,38.3,30.1,30.11,WNW,284,2.0,7.0,72,0.00,,---,0.00,VWS V14.01,2013-03-01 18:35:00,
2013-03-01 12:41:00,38.2,30.0,30.11,WNW,298,2.0,7.0,72,0.00,,---,0.00,VWS V14.01,2013-03-01 18:41:00,
2013-03-01 12:45:00,38.3,30.4,30.11,WSW,248,2.0,8.0,73,0.00,,---,0.00,VWS V14.01,2013-03-01 18:45:00,
2013-03-01 12:51:00,38.7,31.1,30.11,WNW,292,2.0,8.0,74,0.00,,---,0.00,VWS V14.01,2013-03-01 18:51:00,
2013-03-01 12:56:00,39.0,31.1,30.11,NW,318,6.0,8.0,73,0.00,,---,0.00,VWS V14.01,2013-03-01 18:56:00,
2013-03-01 13:01:00,39.3,31.4,30.10,WSW,256,5.0,8.0,73,0.00,,---,0.00,VWS V14.01,2013-03-01 19:01:00,
2013-03-01 13:06:00,39.2,30.6,30.10,West,268,3.0,6.0,71,0.00,,---,0.00,VWS V14.01,2013-03-01 19:06:00,
2013-03-01 13:10:00,39.0,30.8,30.10,NW,306,3.0,6.0,72,0.00,,---,0.00,VWS V14.01,2013-03-01 19:10:00,
2013-03-01 13:15:00,38.8,30.6,30.10,WNW,302,5.0,9.0,72,0.00,,---,0.00,VWS V14.01,2013-03-01 19:15:00,
2013-03-01 13:20:00,38.4,31.2,30.10,NW,306,12.0,13.0,75,0.00,,---,0.00,VWS V14.01,2013-03-01 19:20:00,
2013-03-01 13:25:00,37.7,31.1,30.10,WNW,297,6.0,13.0,77,0.00,,---,0.00,VWS V14.01,2013-03-01 19:25:00,
2013-03-01 13:30:00,37.1,31.5,30.10,NNW,333,3.0,13.0,80,0.00,,---,0.00,VWS V14.01,2013-03-01 19:30:00,
2013-03-01 13:35:00,36.7,31.7,30.10,NW,309,4.0,7.0,82,0.00,,---,0.00,VWS V14.01,2013-03-01 19:35:00,
2013-03-01 13:40:00,36.6,31.6,30.10,NW,311,4.0,8.0,82,0.00,,---,0.00,VWS V14.01,2013-03-01 19:40:00,
2013-03-01 13:45:00,36.8,31.8,30.09,North,349,4.0,11.0,82,0.00,,---,0.00,VWS V14.01,2013-03-01 19:45:00,
2013-03-01 13:50:00,36.8,31.2,30.09,NW,323,4.0,11.0,80,0.00,,---,0.00,VWS V14.01,2013-03-01 19:50:00,
2013-03-01 13:55:00,37.0,31.1,30.09,NW,319,3.0,11.0,79,0.00,,---,0.00,VWS V14.01,2013-03-01 19:55:00,
2013-03-01 14:00:00,37.0,31.1,30.09,NNW,327,5.0,11.0,79,0.00,,---,0.00,VWS V14.01,2013-03-01 20:00:00,
2013-03-01 14:05:00,37.1,30.9,30.09,NW,316,2.0,7.0,78,0.00,,---,0.00,VWS V14.01,2013-03-01 20:05:00,
2013-03-01 14:10:00,37.2,31.3,30.09,NW,309,7.0,10.0,79,0.00,,---,0.00,VWS V14.01,2013-03-01 20:10:00,
2013-03-01 14:15:00,37.2,31.0,30.10,NNW,328,4.0,12.0,78,0.00,,---,0.00,VWS V14.01,2013-03-01 20:15:00,
2013-03-01 14:20:00,37.2,31.0,30.10,NW,319,5.0,12.0,78,0.00,,---,0.00,VWS V14.01,2013-03-01 20:20:00,
2013-03-01 14:25:00,37.2,30.7,30.09,NW,321,3.0,12.0,77,0.00,,---,0.00,VWS V14.01,2013-03-01 20:25:00,
2013-03-01 14:30:00,37.3,30.4,30.09,North,10,7.0,12.0,76,0.00,,---,0.00,VWS V14.01,2013-03-01 20:30:00,
2013-03-01 14:35:00,37.4,30.9,30.09,NW,325,3.0,4.0,77,0.00,,---,0.00,VWS V14.01,2013-03-01 20:35:00,
2013-03-01 14:40:00,37.6,30.7,30.09,NW,326,4.0,8.0,76,0.00,,---,0.00,VWS V14.01,2013-03-01 20:40:00,
2013-03-01 14:45:00,37.7,30.5,30.09,NW,319,5.0,8.0,75,0.00,,---,0.00,VWS V14.01,2013-03-01 20:45:00,
2013-03-01 14:50:00,37.6,30.7,30.09,NW,325,5.0,8.0,76,0.00,,---,0.00,VWS V14.01,2013-03-01 20:50:00,
2013-03-01 14:55:00,37.6,30.7,30.09,WNW,288,9.0,15.0,76,0.00,,---,0.00,VWS V14.01,2013-03-01 20:55:00,
2013-03-01 15:00:00,37.5,31.0,30.10,NNW,331,5.0,15.0,77,0.00,,---,0.00,VWS V14.01,2013-03-01 21:00:00,
2013-03-01 15:05:00,37.5,31.3,30.09,NW,306,8.0,8.0,78,0.00,,---,0.00,VWS V14.01,2013-03-01 21:05:00,
2013-03-01 15:10:00,37.5,31.0,30.09,NW,317,10.0,12.0,77,0.00,,---,0.00,VWS V14.01,2013-03-01 21:10:00,
2013-03-01 15:15:00,37.3,30.8,30.09,WNW,300,4.0,12.0,77,0.00,,---,0.00,VWS V14.01,2013-03-01 21:15:00,
2013-03-01 15:20:00,37.4,31.2,30.09,NW,319,1.0,12.0,78,0.00,,---,0.00,VWS V14.01,2013-03-01 21:20:00,
2013-03-01 15:25:00,37.5,31.0,30.09,NW,309,5.0,12.0,77,0.00,,---,0.00,VWS V14.01,2013-03-01 21:25:00,
2013-03-01 15:30:00,37.6,30.7,30.09,NW,325,5.0,12.0,76,0.00,,---,0.00,VWS V14.01,2013-03-01 21:30:00,
2013-03-01 15:35:00,37.5,30.6,30.09,NNW,331,5.0,8.0,76,0.00,,---,0.00,VWS V14.01,2013-03-01 21:35:00,
2013-03-01 15:40:00,37.4,30.5,30.09,WNW,286,8.0,8.0,76,0.00,,---,0.00,VWS V14.01,2013-03-01 21:40:00,
2013-03-01 15:45:00,37.4,30.2,30.09,NW,304,7.0,10.0,75,0.00,,---,0.00,VWS V14.01,2013-03-01 21:45:00,
2013-03-01 15:50:00,37.4,30.5,30.09,WNW,302,4.0,10.0,76,0.00,,---,0.00,VWS V14.01,2013-03-01 21:50:00,
2013-03-01 15:55:00,37.4,30.5,30.09,West,276,4.0,11.0,76,0.00,,---,0.00,VWS V14.01,2013-03-01 21:55:00,
2013-03-01 16:00:00,37.5,30.3,30.09,WNW,294,3.0,11.0,75,0.00,,---,0.00,VWS V14.01,2013-03-01 22:00:00,
2013-03-01 16:05:00,37.5,30.3,30.09,WNW,300,3.0,5.0,75,0.00,,---,0.00,VWS V14.01,2013-03-01 22:05:00,
2013-03-01 16:10:00,37.5,30.3,30.09,WNW,302,2.0,7.0,75,0.00,,---,0.00,VWS V14.01,2013-03-01 22:10:00,
2013-03-01 16:15:00,37.6,30.4,30.09,NNW,347,7.0,7.0,75,0.00,,---,0.00,VWS V14.01,2013-03-01 22:15:00,
2013-03-01 16:20:00,37.5,30.6,30.09,North,355,5.0,7.0,76,0.00,,---,0.00,VWS V14.01,2013-03-01 22:20:00,
2013-03-01 16:25:00,37.4,30.9,30.09,NNE,19,2.0,7.0,77,0.00,,---,0.00,VWS V14.01,2013-03-01 22:25:00,
2013-03-01 16:30:00,37.3,30.8,30.09,North,350,6.0,9.0,77,0.00,,---,0.00,VWS V14.01,2013-03-01 22:30:00,
2013-03-01 16:35:00,37.2,30.7,30.09,NW,323,8.0,10.0,77,0.00,,---,0.00,VWS V14.01,2013-03-01 22:35:00,
2013-03-01 16:40:00,37.0,30.8,30.09,WNW,293,3.0,10.0,78,0.00,,---,0.00,VWS V14.01,2013-03-01 22:40:00,
2013-03-01 16:45:00,36.9,31.0,30.10,NNW,329,6.0,10.0,79,0.00,,---,0.00,VWS V14.01,2013-03-01 22:45:00,
2013-03-01 16:50:00,36.6,31.0,30.10,WNW,295,6.0,12.0,80,0.00,,---,0.00,VWS V14.01,2013-03-01 22:50:00,
2013-03-01 16:55:00,36.4,31.1,30.11,NW,306,5.0,12.0,81,0.00,,---,0.00,VWS V14.01,2013-03-01 22:55:00,
2013-03-01 17:00:00,36.2,31.2,30.11,WNW,294,5.0,12.0,82,0.00,,---,0.00,VWS V14.01,2013-03-01 23:00:00,
2013-03-01 17:05:00,36.1,31.1,30.11,NW,308,5.0,7.0,82,0.00,,---,0.00,VWS V14.01,2013-03-01 23:05:00,
2013-03-01 17:10:00,36.0,31.0,30.11,WNW,296,0.0,8.0,82,0.00,,---,0.00,VWS V14.01,2013-03-01 23:10:00,
2013-03-01 17:15:00,36.0,31.4,30.11,WNW,302,3.0,8.0,83,0.00,,---,0.00,VWS V14.01,2013-03-01 23:15:00,
2013-03-01 17:20:00,36.0,31.4,30.11,NNW,336,8.0,8.0,83,0.00,,---,0.00,VWS V14.01,2013-03-01 23:20:00,
2013-03-01 17:25:00,36.0,30.8,30.11,NW,313,6.0,9.0,81,0.00,,---,0.00,VWS V14.01,2013-03-01 23:25:00,
2013-03-01 17:30:00,36.0,30.8,30.12,NNW,329,4.0,11.0,81,0.00,,---,0.00,VWS V14.01,2013-03-01 23:30:00,
2013-03-01 17:35:00,36.0,30.8,30.12,NW,307,5.0,6.0,81,0.00,,---,0.00,VWS V14.01,2013-03-01 23:35:00,
2013-03-01 17:40:00,36.0,30.4,30.12,West,268,1.0,8.0,80,0.00,,---,0.00,VWS V14.01,2013-03-01 23:40:00,
2013-03-01 17:45:00,36.0,30.4,30.12,NW,317,4.0,11.0,80,0.00,,---,0.00,VWS V14.01,2013-03-01 23:45:00,
2013-03-01 17:50:00,35.9,30.3,30.12,NNW,336,5.0,11.0,80,0.00,,---,0.00,VWS V14.01,2013-03-01 23:50:00,
2013-03-01 17:55:00,35.8,30.2,30.12,WNW,294,3.0,11.0,80,0.00,,---,0.00,VWS V14.01,2013-03-01 23:55:00,
2013-03-01 18:00:00,35.7,30.1,30.13,WNW,290,2.0,11.0,80,0.00,,---,0.00,VWS V14.01,2013-03-02 00:00:00,
2013-03-01 18:05:00,35.7,30.1,30.13,WNW,287,3.0,6.0,80,0.00,,---,0.00,VWS V14.01,2013-03-02 00:05:00,
2013-03-01 18:10:00,35.6,30.0,30.13,NW,311,2.0,9.0,80,0.00,,---,0.00,VWS V14.01,2013-03-02 00:10:00,
2013-03-01 18:15:00,35.6,30.0,30.13,WNW,300,3.0,9.0,80,0.00,,---,0.00,VWS V14.01,2013-03-02 00:15:00,
2013-03-01 18:20:00,35.6,30.0,30.13,West,264,3.0,9.0,80,0.00,,---,0.00,VWS V14.01,2013-03-02 00:20:00,
2013-03-01 18:25:00,35.6,30.0,30.13,NW,304,4.0,9.0,80,0.00,,---,0.00,VWS V14.01,2013-03-02 00:25:00,
2013-03-01 18:30:00,35.6,30.0,30.14,WNW,293,2.0,9.0,80,0.00,,---,0.00,VWS V14.01,2013-03-02 00:30:00,
2013-03-01 18:35:00,35.6,30.0,30.13,WNW,292,2.0,7.0,80,0.00,,---,0.00,VWS V14.01,2013-03-02 00:35:00,
2013-03-01 18:40:00,35.6,30.0,30.14,West,267,3.0,7.0,80,0.00,,---,0.00,VWS V14.01,2013-03-02 00:40:00,
2013-03-01 18:45:00,35.6,30.0,30.14,WNW,294,5.0,7.0,80,0.00,,---,0.00,VWS V14.01,2013-03-02 00:45:00,
2013-03-01 18:50:00,35.6,29.7,30.14,WNW,296,5.0,7.0,79,0.00,,---,0.00,VWS V14.01,2013-03-02 00:50:00,
2013-03-01 18:55:00,35.6,29.7,30.14,NW,319,6.0,8.0,79,0.00,,---,0.00,VWS V14.01,2013-03-02 00:55:00,
2013-03-01 19:00:00,35.7,29.8,30.14,NW,323,6.0,8.0,79,0.00,,---,0.00,VWS V14.01,2013-03-02 01:00:00,
2013-03-01 19:05:00,35.7,29.5,30.14,NW,304,4.0,6.0,78,0.00,,---,0.00,VWS V14.01,2013-03-02 01:05:00,
2013-03-01 19:10:00,35.7,29.8,30.14,WNW,298,3.0,10.0,79,0.00,,---,0.00,VWS V14.01,2013-03-02 01:10:00,
2013-03-01 19:15:00,35.7,29.8,30.14,NNW,327,2.0,10.0,79,0.00,,---,0.00,VWS V14.01,2013-03-02 01:15:00,
2013-03-01 19:20:00,35.7,29.5,30.14,NW,312,4.0,10.0,78,0.00,,---,0.00,VWS V14.01,2013-03-02 01:20:00,
2013-03-01 19:25:00,35.6,29.7,30.14,WNW,296,3.0,10.0,79,0.00,,---,0.00,VWS V14.01,2013-03-02 01:25:00,
2013-03-01 19:30:00,35.6,29.4,30.14,NW,313,2.0,10.0,78,0.00,,---,0.00,VWS V14.01,2013-03-02 01:30:00,
2013-03-01 19:35:00,35.5,29.6,30.14,NW,309,0.0,3.0,79,0.00,,---,0.00,VWS V14.01,2013-03-02 01:35:00,
2013-03-01 19:40:00,35.5,29.3,30.14,NW,317,0.0,5.0,78,0.00,,---,0.00,VWS V14.01,2013-03-02 01:40:00,
2013-03-01 19:45:00,35.4,29.2,30.14,NW,317,2.0,5.0,78,0.00,,---,0.00,VWS V14.01,2013-03-02 01:45:00,
2013-03-01 19:50:00,35.3,29.5,30.14,NNW,329,0.0,5.0,79,0.00,,---,0.00,VWS V14.01,2013-03-02 01:50:00,
2013-03-01 19:55:00,35.3,29.5,30.14,NW,316,1.0,5.0,79,0.00,,---,0.00,VWS V14.01,2013-03-02 01:55:00,
2013-03-01 20:00:00,35.2,29.4,30.14,NW,315,2.0,5.0,79,0.00,,---,0.00,VWS V14.01,2013-03-02 02:00:00,
2013-03-01 20:05:00,35.2,29.4,30.14,NW,321,0.0,1.0,79,0.00,,---,0.00,VWS V14.01,2013-03-02 02:05:00,
2013-03-01 20:10:00,35.2,29.4,30.14,NW,325,0.0,2.0,79,0.00,,---,0.00,VWS V14.01,2013-03-02 02:10:00,
2013-03-01 20:15:00,35.1,29.3,30.14,NW,325,0.0,2.0,79,0.00,,---,0.00,VWS V14.01,2013-03-02 02:15:00,
2013-03-01 20:20:00,35.1,29.6,30.14,NW,325,0.0,2.0,80,0.00,,---,0.00,VWS V14.01,2013-03-02 02:20:00,
2013-03-01 20:25:00,35.1,29.6,30.14,NW,325,0.0,2.0,80,0.00,,---,0.00,VWS V14.01,2013-03-02 02:25:00,
2013-03-01 20:30:00,35.1,29.6,30.14,NW,311,6.0,6.0,80,0.00,,---,0.00,VWS V14.01,2013-03-02 02:30:00,
2013-03-01 20:35:00,35.2,29.4,30.15,NNW,335,4.0,5.0,79,0.00,,---,0.00,VWS V14.01,2013-03-02 02:35:00,
2013-03-01 20:40:00,35.3,29.1,30.15,NW,306,3.0,7.0,78,0.00,,---,0.00,VWS V14.01,2013-03-02 02:40:00,
2013-03-01 20:45:00,35.4,28.9,30.14,NNW,331,6.0,7.0,77,0.00,,---,0.00,VWS V14.01,2013-03-02 02:45:00,
2013-03-01 20:50:00,35.5,28.7,30.15,WNW,288,3.0,9.0,76,0.00,,---,0.00,VWS V14.01,2013-03-02 02:50:00,
2013-03-01 20:55:00,35.6,28.8,30.15,NW,320,4.0,9.0,76,0.00,,---,0.00,VWS V14.01,2013-03-02 02:55:00,
2013-03-01 21:00:00,35.6,28.8,30.15,NNW,338,8.0,12.0,76,0.00,,---,0.00,VWS V14.01,2013-03-02 03:00:00,
2013-03-01 21:05:00,35.6,28.5,30.15,WNW,301,12.0,12.0,75,0.00,,---,0.00,VWS V14.01,2013-03-02 03:05:00,
2013-03-01 21:10:00,35.6,28.8,30.15,WNW,291,8.0,15.0,76,0.00,,---,0.00,VWS V14.01,2013-03-02 03:10:00,
2013-03-01 21:15:00,35.5,28.7,30.15,NW,323,3.0,15.0,76,0.00,,---,0.00,VWS V14.01,2013-03-02 03:15:00,
2013-03-01 21:20:00,35.3,28.5,30.15,NW,319,10.0,15.0,76,0.00,,---,0.00,VWS V14.01,2013-03-02 03:20:00,
2013-03-01 21:25:00,35.2,28.7,30.15,NNW,340,2.0,15.0,77,0.00,,---,0.00,VWS V14.01,2013-03-02 03:25:00,
2013-03-01 21:30:00,35.0,28.5,30.15,NNW,327,8.0,16.0,77,0.00,,---,0.00,VWS V14.01,2013-03-02 03:30:00,
2013-03-01 21:35:00,34.9,28.8,30.15,NW,314,6.0,11.0,78,0.00,,---,0.00,VWS V14.01,2013-03-02 03:35:00,
2013-03-01 21:40:00,34.8,28.6,30.15,NNW,329,5.0,12.0,78,0.00,,---,0.00,VWS V14.01,2013-03-02 03:40:00,
2013-03-01 21:45:00,34.7,28.9,30.15,NW,325,6.0,12.0,79,0.00,,---,0.00,VWS V14.01,2013-03-02 03:45:00,
2013-03-01 21:50:00,34.6,28.8,30.15,NW,306,8.0,12.0,79,0.00,,---,0.00,VWS V14.01,2013-03-02 03:50:00,
2013-03-01 21:55:00,34.6,28.8,30.15,NW,306,7.0,13.0,79,0.00,,---,0.00,VWS V14.01,2013-03-02 03:55:00,
2013-03-01 22:00:00,34.4,28.9,30.15,WNW,284,1.0,13.0,80,0.00,,---,0.00,VWS V14.01,2013-03-02 04:00:00,
2013-03-01 22:05:00,34.4,29.2,30.15,ENE,72,3.0,8.0,81,0.00,,---,0.00,VWS V14.01,2013-03-02 04:05:00,
2013-03-01 22:10:00,34.3,29.4,30.15,NW,319,4.0,10.0,82,0.00,,---,0.00,VWS V14.01,2013-03-02 04:10:00,
2013-03-01 22:15:00,34.2,29.3,30.15,WNW,286,3.0,10.0,82,0.00,,---,0.00,VWS V14.01,2013-03-02 04:15:00,
2013-03-01 22:20:00,34.1,29.2,30.15,WNW,298,3.0,10.0,82,0.00,,---,0.00,VWS V14.01,2013-03-02 04:20:00,
2013-03-01 22:25:00,34.1,29.5,30.15,NW,315,7.0,10.0,83,0.00,,---,0.00,VWS V14.01,2013-03-02 04:25:00,
2013-03-01 22:30:00,34.1,29.5,30.15,NW,305,4.0,10.0,83,0.00,,---,0.00,VWS V14.01,2013-03-02 04:30:00,
2013-03-01 22:35:00,34.1,29.5,30.15,NNW,329,3.0,4.0,83,0.00,,---,0.00,VWS V14.01,2013-03-02 04:35:00,
2013-03-01 22:40:00,34.0,29.4,30.15,NW,310,9.0,9.0,83,0.00,,---,0.00,VWS V14.01,2013-03-02 04:40:00,
2013-03-01 22:45:00,34.0,29.4,30.15,NW,313,7.0,13.0,83,0.00,,---,0.00,VWS V14.01,2013-03-02 04:45:00,
2013-03-01 22:50:00,33.9,29.3,30.15,WNW,298,3.0,13.0,83,0.00,,---,0.00,VWS V14.01,2013-03-02 04:50:00,
2013-03-01 22:55:00,33.9,29.6,30.15,NW,323,5.0,13.0,84,0.00,,---,0.00,VWS V14.01,2013-03-02 04:55:00,
2013-03-01 23:00:00,33.9,29.6,30.15,NNW,346,6.0,13.0,84,0.00,,---,0.00,VWS V14.01,2013-03-02 05:00:00,
2013-03-01 23:05:00,33.8,29.5,30.15,NNW,335,4.0,4.0,84,0.00,,---,0.00,VWS V14.01,2013-03-02 05:05:00,
2013-03-01 23:10:00,33.7,29.4,30.15,WNW,288,5.0,11.0,84,0.00,,---,0.00,VWS V14.01,2013-03-02 05:10:00,
2013-03-01 23:15:00,33.6,29.6,30.15,NW,319,4.0,11.0,85,0.00,,---,0.00,VWS V14.01,2013-03-02 05:15:00,
2013-03-01 23:20:00,33.5,29.5,30.15,NW,323,4.0,11.0,85,0.00,,---,0.00,VWS V14.01,2013-03-02 05:20:00,
2013-03-01 23:25:00,33.4,29.7,30.15,NW,315,9.0,11.0,86,0.00,,---,0.00,VWS V14.01,2013-03-02 05:25:00,
2013-03-01 23:30:00,33.3,29.6,30.15,NW,313,5.0,11.0,86,0.00,,---,0.00,VWS V14.01,2013-03-02 05:30:00,
2013-03-01 23:35:00,33.2,29.5,30.15,NNW,346,5.0,11.0,86,0.00,,---,0.00,VWS V14.01,2013-03-02 05:35:00,
2013-03-01 23:40:00,33.2,29.5,30.15,NW,304,5.0,11.0,86,0.00,,---,0.00,VWS V14.01,2013-03-02 05:40:00,
2013-03-01 23:45:00,33.1,29.7,30.15,NNW,327,2.0,11.0,87,0.00,,---,0.00,VWS V14.01,2013-03-02 05:45:00,
2013-03-01 23:50:00,33.0,29.6,30.15,NNW,333,3.0,11.0,87,0.00,,---,0.00,VWS V14.01,2013-03-02 05:50:00,
2013-03-01 23:55:00,32.9,29.7,30.14,WSW,254,0.0,11.0,88,0.00,,---,0.00,VWS V14.01,2013-03-02 05:55:00,